Location: ?
(35.4064°N, 139.3593°E)
Time: 08:49:48
(UTC+00:00)

SL-16 R/B - Visible Passes

Search period start: 18 July 2024 00:00
Search period end: 28 July 2024 00:00
Orbit: 839 x 849 km, 71.0° (Epoch: 17 July)

Date Brightness Start Highest point End Pass type
(mag) Time Alt. Az. Time Alt. Az. Time Alt. Az.
18 Jul 4.9 10:47:44 10° WNW 10:50:08 13° W 10:52:32 10° WSW visible
19 Jul 4.9 10:33:13 10° WNW 10:35:52 14° W 10:38:30 10° SW visible
20 Jul 4.9 10:18:43 10° WNW 10:21:35 14° W 10:24:27 10° SW visible
